Погода в Черном Ручье

Россия / Брянская область     52°57′31″N   32°06′02″E
темп.,
°C
ветер,
м/с
пор.,
м/с
влажн.,
%
обл.,
%
осадки,
мм/ч
давл.,
гПа
погр.,
м
27 ноября, сб
сб2700:00+2ююв61494100 0.0 1007449
03:00+2ююв71491100 0.0 1004490
06:00+2юв81788100 0.0 1001578
09:00+2юв91793100 1.2 998883
12:00+4ююв91792100 1.8 996917
15:00+5ю71396100 2.8 995501
18:00+6ююз61394100 0.4 996607
21:00+5юз7138422 0.6 998629
28 ноября, вс
вс2800:00+4зюз6118295 0.0 1000432
03:00+3зюз6107587 0.0 1002665
06:000ююз37905 0.0 1003150
09:000ююз369383 0.0 1005135
12:00+3юз3577100 0.0 1006256
15:00+4ююв3679100 0.0 1005210
18:00+2юв3686100 0.0 1006127
21:00+3вюв51290100 0.0 1003263
29 ноября, пн
пн2900:00+4юв51393100 0.0 1002326
03:00+5ююв51294100 0.1 1000318
06:00+6юв41196100 0.2 998290
09:00+6юв41097100 0.2 997281
12:00+7юв4996100 0.0 994338
15:00+6юв4998100 0.1 991325
18:00+7юв51098100 0.1 988359
21:00+7юв3898100 1.3 985275
30 ноября, вт
вт3000:00+7зюз81295100 0.2 982554
03:00+2зюз91587100 0.6 985774
06:00+2зюз101577100 0.1 9861223
09:00+1зюз101682100 0.2 9871490
12:00+1зюз101579100 0.3 9881345
15:000зюз91478100 0.4 9881276
18:00−1з91586100 0.1 9901071
21:00−2з91692100 0.6 9921201
1 декабря, ср
ср100:00−2з81494100 1.2 9941096
03:00−2зсз81276100 1.6 9961086
06:00−3з7118398 0.1 999910
09:00−3з6108676 0.1 1000574
12:00−2з687995 0.0 1001609
15:00−1юз4773100 0.0 1001562
18:00−2ю5118070 0.0 1001441
21:00−1ю51190100 0.0 1000427